Weather History for Fairbanks Eiels, AK

Change the Weather History Date:

Wednesday, May 22, 2013

  Actual Average Record
Temperature  
Mean Temperature 48 °F -  
Max Temperature 66 °F 60 °F 81 °F (1960)
Min Temperature 30 °F 38 °F 29 °F (2014)
Degree Days  
Heating Degree Days 18    
Moisture  
Dew Point 23 °F    
Average Humidity 38    
Maximum Humidity 75    
Minimum Humidity 19    
Precipitation  
Precipitation 0.00 in - - ()
Sea Level Pressure  
Sea Level Pressure 30.04 in    
Wind  
Wind Speed 4 mph (WSW)    
Max Wind Speed 14 mph    
Max Gust Speed 18 mph    
Visibility 10 miles    
Events      
Averages and records for this station are not official NWS values.
T = Trace of Precipitation, MM = Missing Value Source: NWS Daily Summary

Daily Weather History Graph

Daily Weather History Graph

Search for Another Location

Airport:

Trip Planner

Search our weather history database for the weather conditions in past years. The results will help you decide how hot, cold, wet, or windy it might be!

Date:

Astronomy

May. 22, 2013 Rise Set
Actual Time 4:02 AM AKDT 11:30 PM AKDT
Civil Twilight 2:17 AM AKDT 1:12 AM AKDT
Nautical Twilight Sun does not rise Sun does not rise
Astronomical Twilight Sun does not rise Sun does not rise
Moon 8:01 PM AKDT (5/22) 3:33 AM AKDT (5/22)
Length of Visible Light 22h 55m
Length of Day
19h 27m
Waxing Gibbous, 92% of the Moon is Illuminated
May 22
Waxing Gibbous
May 24
Full
May 31
Last Quarter
Jun 8
New
Jun 16
First Quarter

Hourly Weather History & Observations

Time (AKDT) Temp. Windchill Dew Point Humidity Pressure Visibility Wind Dir Wind Speed Gust Speed Precip Events Conditions
12:55 AM 41.7 °F 38.0 °F 20.5 °F 43% 30.13 in 10.0 mi Variable 5.8 mph - N/A   Clear
1:55 AM 39.0 °F - 22.8 °F 52% 30.12 in 10.0 mi Calm Calm - N/A   Clear
2:55 AM 32.4 °F - 23.5 °F 70% 30.12 in 10.0 mi Calm Calm - N/A   Clear
3:55 AM 32.2 °F - 21.4 °F 64% 30.12 in 10.0 mi Calm Calm - N/A   Clear
4:55 AM 30.7 °F - 22.5 °F 71% 30.12 in 10.0 mi Calm Calm - N/A   Clear
5:55 AM 33.3 °F - 26.2 °F 75% 30.11 in 10.0 mi Calm Calm - N/A   Clear
6:55 AM 38.5 °F - 24.8 °F 58% 30.10 in 10.0 mi Calm Calm - N/A   Clear
8:55 AM 50.7 °F - 25.5 °F 38% 30.08 in 10.0 mi Variable 3.5 mph - N/A   Clear
9:55 AM 54.1 °F - 23.0 °F 30% 30.06 in 10.0 mi WNW 6.9 mph - N/A   Clear
10:55 AM 57.6 °F - 23.7 °F 27% 30.04 in 10.0 mi Calm Calm - N/A   Clear
11:55 AM 61.2 °F - 23.5 °F 24% 30.03 in 10.0 mi Variable 4.6 mph - N/A   Clear
12:55 PM 62.1 °F - 21.9 °F 21% 30.01 in 10.0 mi Variable 5.8 mph - N/A   Clear
1:55 PM 63.5 °F - 20.7 °F 19% 30.00 in 10.0 mi South 8.1 mph - N/A   Clear
2:55 PM 64.9 °F - 21.0 °F 19% 29.99 in 10.0 mi SSW 8.1 mph 18.4 mph N/A   Clear
3:55 PM 64.0 °F - 20.5 °F 19% 29.97 in 10.0 mi SSW 11.5 mph - N/A   Clear
4:55 PM 65.3 °F - 21.7 °F 19% 29.96 in 10.0 mi SSW 9.2 mph - N/A   Clear
5:55 PM 65.5 °F - 22.5 °F 19% 29.96 in 10.0 mi SW 9.2 mph - N/A   Partly Cloudy
6:55 PM 65.3 °F - 23.5 °F 20% 29.96 in 10.0 mi West 9.2 mph - N/A   Clear
7:55 PM 61.7 °F - 23.9 °F 24% 29.96 in 10.0 mi West 12.7 mph - N/A   Clear
8:55 PM 58.5 °F - 24.1 °F 27% 29.97 in 10.0 mi West 13.8 mph - N/A   Clear
9:55 PM 55.8 °F - 25.5 °F 31% 29.99 in 10.0 mi West 6.9 mph - N/A   Clear
10:55 PM 49.5 °F - 27.3 °F 42% 30.00 in 10.0 mi Calm Calm - N/A   Clear
11:55 PM 42.8 °F - 28.8 °F 58% 30.01 in 10.0 mi Calm Calm - N/A   Clear